Regional Weather Roundup
Issued by NWS Cleveland, OH

Home | Current Version | Previous Version | Text Only | Print | Product List | Glossary Off
Versions: 1 2 3 4 5 6 7 8 9 10 11 12 13 14 15 16 17 18 19 20 21 22 23 24 25 26 27 28 29 30 31 32 33 34 35 36 37 38 39 40 41 42 43 44 45 46 47 48 49 50

000
ASUS41 KCLE 191410
RWRCLE
OHIO REGIONAL WEATHER ROUNDUP
NATIONAL WEATHER SERVICE CLEVELAND, OH
1000 AM EDT SUN APR 19 2015

NOTE: "FAIR" INDICATES FEW OR NO CLOUDS BELOW 12,000 FEET WITH NO
SIGNIFICANT WEATHER AND/OR OBSTRUCTIONS TO VISIBILITY.

OHZ001>008-015>018-024>027-034-035-043-044-191500-
   NORTHWEST OHIO

CITY           SKY/WX    TMP DP  RH WIND       PRES   REMARKS
DEFIANCE       MOSUNNY   57  34  41 NE14G23   29.91F
FINDLAY        PTSUNNY   55  37  50 NE16      29.89F
TOLEDO EXPRESS PTSUNNY   52  35  52 E18       29.95F
TOLEDO EXEC    CLOUDY    51  35  54 NE13      29.97F
LIMA           PTSUNNY   61  39  44 E16       29.86F
$$

OHZ009>014-019>023-028>033-038-089-191500-
   NORTHEAST OHIO

CITY           SKY/WX    TMP DP  RH WIND       PRES   REMARKS
CLE-HOPKINS    PTSUNNY   59  34  39 E12       29.99F
CLE-LAKEFRONT  PTSUNNY   61  32  33 SE10      29.96F
CUY CO. ARPT   PTSUNNY   63  34  34 SE13G23   29.99F
LORAIN-ELYRIA  MOSUNNY   58  35  42 E8        29.96F
ASHTABULA      PTSUNNY   57  27  31 SE12G23   30.05F
AKRON-CANTON   PTSUNNY   55  40  56 E16       29.97F THUNDER
WOOSTER        MOSUNNY   58  39  49 E13       29.96F
MANSFIELD      PTSUNNY   61  37  41 E15G22    29.93F
YOUNGSTOWN     PTSUNNY   59  30  33 E18G28    30.01F
$$

OHZ042-051>053-060>062-070>072-077>081-191500-
  SOUTHWEST OHIO

CITY           SKY/WX    TMP DP  RH WIND       PRES   REMARKS
CINC-COVINGTON LGT RAIN  61  50  67 SE7       29.80F
CINC-LUNKEN    LGT RAIN  62  51  67 NE5       29.81F
HAMILTON       CLOUDY    62  49  62 E6        29.81F
DAYTON         CLOUDY    63  45  51 E16       29.83F
WRIGHT-PAT AFB CLOUDY    63  45  52 E10       29.83F
DAYTON GENERAL CLOUDY    61  47  59 E12G21    29.81F
WILMINGTON     CLOUDY    60  47  61 E7        29.83F
$$

OHZ036-037-039>041-045>050-054>059-063>069-073>076-082>088-191500-
  CENTRAL AND SOUTHEAST OHIO

CITY           SKY/WX    TMP DP  RH WIND       PRES   REMARKS
COLUMBUS       CLOUDY    66  46  48 SE12G20   29.86F
OSU AIRPORT    PTSUNNY   65  46  50 SE14      29.87F
BOLTON FIELD   PTSUNNY   64  46  52 E12       29.87F
RICKENBACK AFB PTSUNNY   63  47  55 E8        29.86F
NEWARK         MOSUNNY   68  45  43 VRB6      29.89F
MARION         MOSUNNY   64  40  41 SE18      29.89F
LANCASTER      CLOUDY    67  50  54 E12       29.88F
ZANESVILLE     MOSUNNY   68  45  43 E10       29.91F
NEW PHILLY     PTSUNNY   67  41  38 SE13      29.96F
$$



USA.gov is the U.S. government's official web portal to all federal, state and local government web resources and services.